www.pogodaiklimat.ru
ПОГОДА в Смедеревска-Паланке

Архив погоды в Смедеревска-Паланке (Сербия)

Время
(UTC), дата
01 21.05
02 21.05
03 21.05
04 21.05
05 21.05
06 21.05
07 21.05
08 21.05
09 21.05
10 21.05
11 21.05
12 21.05
13 21.05
14 21.05
15 21.05
16 21.05
17 21.05
18 21.05
19 21.05
20 21.05
21 21.05
22 21.05
23 21.05
00 22.05
01 22.05
02 22.05
03 22.05
04 22.05
05 22.05
06 22.05
07 22.05
08 22.05
09 22.05
10 22.05
11 22.05
12 22.05
13 22.05
14 22.05
15 22.05
16 22.05
17 22.05
18 22.05
19 22.05
20 22.05
21 22.05
22 22.05
23 22.05
00 23.05
01 23.05
02 23.05
03 23.05
04 23.05
05 23.05
06 23.05
07 23.05
08 23.05
09 23.05
10 23.05
11 23.05
12 23.05
13 23.05
14 23.05
15 23.05
16 23.05
17 23.05
18 23.05
19 23.05
20 23.05
21 23.05
22 23.05
23 23.05
00 24.05
01 24.05
02 24.05
03 24.05
04 24.05
05 24.05
06 24.05
07 24.05
08 24.05
09 24.05
10 24.05
11 24.05
12 24.05
13 24.05
14 24.05
15 24.05
16 24.05
17 24.05
18 24.05
19 24.05
20 24.05
21 24.05
22 24.05
23 24.05
00 25.05
01 25.05
02 25.05
03 25.05
04 25.05
05 25.05
06 25.05
07 25.05
08 25.05
09 25.05
10 25.05
11 25.05
12 25.05
13 25.05
14 25.05
15 25.05
16 25.05
17 25.05
18 25.05
19 25.05
20 25.05
21 25.05
22 25.05
23 25.05
00 26.05
01 26.05
02 26.05
03 26.05
04 26.05
05 26.05
06 26.05
07 26.05
08 26.05
09 26.05
10 26.05
11 26.05
12 26.05
13 26.05
14 26.05
15 26.05
16 26.05
17 26.05
18 26.05
19 26.05
20 26.05
21 26.05
22 26.05
23 26.05
00 27.05
01 27.05
02 27.05
03 27.05
04 27.05
05 27.05
06 27.05
07 27.05
08 27.05
09 27.05
10 27.05
11 27.05
12 27.05
13 27.05
14 27.05
15 27.05
16 27.05
17 27.05
18 27.05
19 27.05
20 27.05
21 27.05
22 27.05
00 28.05
Ветер
(напр.,м/с)
Видим. Явления Облачность Т
(С)
Тd
(С)
f
(%)
Тe
(С)
Тes
(С)
Комфортность P
(гПа)
Po
(гПа)
Тmin
(С)
Tmax
(С)
R
(мм)
R24
(мм)
S
(см)
В 4 20 км ясно +18.0 +14.4 79 +18 +18 1012.9 998.8
В 3 20 км 3/0
[Ac lent Ci fib]
+17.5 +14.7 84 +18 +18 1012.1 997.9
В 2 20 км 1/0
[Ci fib]
+16.8 +15.2 90 +17 +17 1011.9 997.7
В 3 20 км 5/0
[Ac trans Cs]
+17.5 +15.1 86 +18 +18 1011.9 997.7
В 3 40 км 8/0
[Cs]
+18.6 +15.7 83 +20 +21 1012.1 998.0
В 3 40 км 6/0
[Cs]
+19.3 +16.0 81 +21 +25 комфорт 1012.1 997.9 +16.5
В 4 40 км 5/1 1000 м
[Cu hum Ac trans Cs]
+22.0 +16.1 69 +26 +30 душно 1011.8 997.8
В 5 35 км 5/1 1000 м
[Cu hum Ac trans Cs]
+23.8 +16.4 63 +27 +32 жарко 1011.5 997.6
В 6 25 км 9/3 600 м
[Cu Sc Ac trans Cs]
+24.0 +17.8 68 +28 +31 душно 1011.2 997.3
В 5 20 км 9/4 600 м
[Cu Sc Ac lent Cs]
+25.4 +17.1 60 +29 +33 душно 1011.1 997.2
В 5 {11} 20 км 9/4 600 м
[Cu Sc Ac lent Cs]
+25.8 +16.9 58 +30 +33 душно 1010.4 996.6
В 5 {11} 20 км 5/3 600 м
[Cu Sc Ac cast Cs]
+27.4 +17.1 53 +31 +37 душно 1009.5 995.7
В 5-13 {12} 20 км 8/3 1000 м
[Cu hum Ac cast Cs]
+27.1 +17.4 55 +31 +34 душно 1008.9 995.1
В 7-11 {13} 20 км 9/0
[Ac lent Cs]
+24.5 +15.9 59 +28 +30 душно 1008.4 994.5
В 6-12 {13} 20 км 10/0
[Ac As]
+23.7 +14.9 58 +27 +27 жарко 1008.5 994.6
В 3 {12} 20 км гроза без осадков 10/6 600 м
[Cb cap Ac As]
+23.2 +14.7 59 +27 +27 душно 1008.7 994.8
В 2 15 км гроза без осадков 10/6 600 м
[Cb cap Ac As]
+22.6 +13.4 56 +26 +26 жарко 1008.8 994.8
В 5 15 км гроза, ливневой дождь 10/10 600 м
[Cb cap]
+19.2 +17.6 90 +21 +21 комфорт 1008.4 994.3 +28.0 4
СВ 1 20 км в посл. час гроза {ливн. дождь} 10/8 600 м
[Cu Sc Ac As]
+18.9 +16.4 85 +21 +21 комфорт 1009.2 995.1
В 1 20 км {гроза, дождь} 9/4 600 м
[Cu Sc Ac trans Cs]
+20.0 +14.9 72 +23 +23 комфорт 1009.3 995.2
ЮВ 1 20 км зарница {гроза, дождь} 9/9 600 м
[Cu Sc]
+19.0 +15.2 79 +21 +21 комфорт 1009.5 995.3
В 2 20 км зарница 8/3 1000 м
[Sc Ac trans]
+19.5 +15.2 76 +22 +22 комфорт 1010.0 995.9
В 2 20 км зарница 5/0
[Ac trans]
+18.7 +15.6 82 +20 +20 1010.0 995.8
В 1 20 км зарница {гроза, дождь} 3/0
[Ac trans]
+18.4 +15.2 82 +20 +20 1010.0 995.8 0.4
В 2 20 км ясно +18.2 +14.2 77 +19 +19 1009.9 995.7
ЮВ 1 20 км 1/0
[Ac trans]
+17.2 +14.5 84 +18 +18 1010.2 995.9
В 1 15 км 3/0
[Ac trans]
+17.1 +14.5 85 +18 +18 1010.5 996.2
В 1 12 км 4/0
[Ac trans Ci fib]
+16.6 +14.3 86 +17 +18 1010.9 996.6
ЮВ 1 15 км 4/0
[Ac lent Ci fib]
+17.7 +14.9 84 +19 +21 1011.1 996.9
Ю 1 10 км 9/6 600 м
[Cu Sc Ci fib]
+19.4 +15.8 80 +22 +25 комфорт 1011.8 997.7 +15.9 0.4 4.3
Ю 1 20 км 9/6 600 м
[Cu Sc Ci fib]
+21.0 +17.0 78 +26 +30 душно 1012.0 998.0
З 1 20 км 9/6 600 м
[Cu Sc Ci fib]
+22.0 +16.6 71 +26 +31 душно 1012.0 998.1
С 2 30 км гроза без осадков 9/9 600 м
[Cb cap Cc]
+22.2 +17.0 72 +27 +28 душно 1012.0 998.1
В 3 50 км гроза без осадков 9/9 600 м
[Cb cap]
+23.0 +16.6 67 +28 +29 душно 1011.9 998.0
З 3 30 км гроза, ливневой дождь 10/10 600 м
[Cb cap]
+19.2 +15.7 80 +21 +21 комфорт 1011.7 997.6
ЮЗ 1 50 км гроза, ливневой дождь 10/10 600 м
[Cb cap]
+18.8 +16.3 85 +21 +21 комфорт 1012.3 998.2 1
З 1 30 км в посл. час гроза {дождь} 10/10 600 м
[Cu Sc]
+19.0 +16.2 84 +22 +22 комфорт 1011.5 997.4
ЮВ 1 20 км 9/4 600 м
[Cb calv Ac As Cs]
+20.4 +17.2 82 +25 +29 комфорт 1011.3 997.2
В 5 20 км гроза без осадков {дождь} 9/9 300 м
[Cb cap]
+19.8 +15.4 76 +22 +22 комфорт 1011.7 997.6
ЮВ 2 20 км в посл. час гроза 9/5 600 м
[Cu Sc Ac As]
+20.8 +16.2 75 +25 +25 комфорт 1011.2 997.1
Ю 2 25 км 9/6 600 м
[Cu Sc Ac As]
+19.1 +15.3 79 +21 +21 комфорт 1011.8 997.6
З 2 40 км в посл. час гроза {дождь} 9/5 600 м
[Cu Sc Ac As Ci fib]
+17.4 +13.6 78 +18 +18 1011.9 997.6 +23.9 1
ЮВ 2 40 км слаб. дождь 9/6 600 м
[Cu Sc Ac As]
+16.8 +14.5 86 +17 +17 1012.7 998.4
штиль 0 40 км слаб. дождь 9/6 600 м
[Cu Sc Ac As]
+16.0 +14.0 88 +16 +16 1013.3 998.9
штиль 0 40 км слаб. дождь 10/10 600 м
[Cu Sc]
+15.4 +13.7 90 +15 +15 1013.3 998.9
ЮЗ 1 40 км в посл. час дождь 9/6 600 м
[Cu Sc Ac As]
+15.5 +14.7 95 +16 +16 1013.5 999.1
Ю 1 20 км 9/6 600 м
[Cu Sc Ac As]
+15.0 +14.2 95 +15 +15 1013.5 999.1
Ю 1 20 км слаб. дождь 10/10 600 м
[Cu Sc]
+14.7 +14.0 96 +15 +15 1013.7 999.3 0.2
ЮЗ 2 20 км слаб. дождь 10/10 600 м
[Cu Sc]
+14.5 +13.8 96 +14 +14 1014.0 999.6
ЮЗ 2 20 км слаб. дождь 10/10 600 м
[Cu Sc]
+14.4 +13.9 97 +14 +14 1014.3 999.8
ЮЗ 1 20 км слаб. дождь 10/10 600 м
[Cu Sc]
+14.0 +13.3 96 +14 +14 1014.4 999.9
ЮЗ 1 10 км слаб. дождь 10/10 600 м
[Cu Sc]
+14.0 +13.6 97 +14 +14 1014.6 1000.1
ЮЗ 2 25 км слаб. дождь 10/10 600 м
[Cu Sc]
+14.4 +13.9 97 +14 +14 1015.2 1000.7
ЮЗ 1 25 км слаб. дождь 10/8 600 м
[Cu Sc Ac As]
+14.8 +14.1 96 +15 +16 1015.2 1000.8 +14.0 2 3.6
ЮЗ 2 45 км в посл. час дождь 10/6 600 м
[Cu Sc Ac As]
+16.2 +14.7 91 +16 +17 1015.3 1000.9
ЮЗ 2 50 км 10/6 600 м
[Cu Sc Ac As]
+16.5 +14.6 89 +17 +18 1015.7 1001.3
З 3 40 км {дождь} 10/10 600 м
[Cu Sc]
+17.4 +14.0 80 +17 +17 1015.9 1001.6
ЮЗ 4 25 км слаб. дождь 10/6 600 м
[Cu Sc Ac As]
+18.3 +15.4 83 +19 +20 1016.1 1001.8
З 4 30 км в посл. час дождь 10/10 600 м
[Cu Sc]
+18.2 +15.0 82 +18 +18 1016.2 1001.9
СЗ 2 30 км слаб. дождь 10/10 600 м
[Cu Sc]
+17.2 +14.1 82 +18 +18 1016.2 1001.9 0.2
З 4 40 км в посл. час дождь 9/6 600 м
[Cu Sc Ci sp]
+19.3 +14.7 75 +21 +24 комфорт 1015.9 1001.7
ЮЗ 2 35 км 9/8 600 м
[Cu Sc Ci sp]
+19.3 +14.7 75 +21 +23 комфорт 1015.9 1001.7
ЮЗ 3 40 км слаб. дождь 9/9 600 м
[Cu Sc]
+18.9 +14.6 76 +20 +21 1016.0 1001.7
З 2 50 км в посл. час дождь 9/8 600 м
[Cu Sc Ac trans]
+20.1 +14.3 69 +23 +23 комфорт 1015.6 1001.4
З 2 50 км 6/5 600 м
[Cu Sc Ac lent Ci fib]
+20.2 +13.9 67 +23 +23 комфорт 1015.6 1001.4
штиль 0 70 км {дождь} 4/3 600 м
[Cb calv Ac trans]
+18.2 +13.4 74 +18 +18 1016.2 1002.0 +21.0 0.4
В 2 40 км 8/4 600 м
[Cu Sc Ac trans]
+16.8 +14.3 85 +17 +17 1016.8 1002.5
В 1 40 км 9/4 600 м
[Cu Sc Ac trans]
+16.3 +14.3 88 +17 +17 1017.3 1003.0
Ю 2 40 км 8/0
[Ac und]
+16.0 +14.5 91 +16 +16 1017.3 1003.0
штиль 0 30 км 8/0
[Ac As]
+15.0 +13.3 90 +15 +15 1017.4 1003.0
ЮВ 1 30 км 4/0
[Ac trans]
+14.3 +13.1 92 +15 +15 1017.4 1003.0
штиль 0 30 км 5/0
[Ac trans]
+14.2 +13.2 94 +14 +14 1017.5 1003.1
ЮЗ 1 30 км 3/0
[Ac trans]
+13.7 +12.5 92 +14 +14 1017.7 1003.3
штиль 0 30 км 3/0
[Ac trans]
+13.2 +12.3 94 +13 +13 1017.9 1003.4
Ю 1 8000 м дымка 9/0
[Ac As]
+12.8 +12.1 96 +13 +13 1017.7 1003.2
штиль 0 40 км 9/0
[Ac As]
+13.0 +12.1 94 +12 +13 1017.9 1003.4
штиль 0 10 км 9/3 1000 м
[Sc Ac As]
+13.8 +13.1 96 +13 +14 1017.9 1003.5
Ю 1 15 км 9/1 1000 м
[Cu hum Ac As]
+15.4 +14.1 92 +16 +18 1018.8 1004.3 +12.7 0.4
ЮЗ 1 50 км 9/3 600 м
[Cu Sc Ac As]
+17.1 +15.3 89 +18 +21 1019.4 1005.0
ЮЗ 1 50 км 9/5 600 м
[Cu Sc Ac As]
+19.2 +15.0 77 +22 +25 комфорт 1019.1 1004.8
СЗ 2 40 км 9/8 600 м
[Cu Sc Ac trans]
+22.0 +15.9 68 +26 +28 душно 1019.1 1005.0
ЮЗ 4 30 км 9/9 600 м
[Cu Sc]
+22.0 +17.2 74 +26 +28 душно 1019.3 1005.2
ЮЗ 5 4000 м гроза, ливневой дождь 10/10 300 м
[Cb cap]
+18.0 +14.7 81 +18 +18 1019.9 1005.5
ЮВ 1 25 км гроза, ливневой дождь 9/9 600 м
[Cb cap]
+16.6 +14.9 90 +17 +19 1020.0 1005.6 1
ЮЗ 3 25 км слаб. ливневой дождь, в посл. час гроза 9/6 600 м
[Cu Sc Ac As]
+17.0 +16.2 95 +17 +19 1019.5 1005.1
С 1 25 км в посл. час дождь 8/3 600 м
[Cu Sc Ac As Cs]
+18.9 +17.8 93 +21 +27 комфорт 1019.1 1004.8
С 1 25 км {гроза, дождь} 8/3 600 м
[Cu Sc Ac As Cs]
+21.9 +16.8 73 +26 +29 душно 1018.9 1004.8
З 2 25 км 5/3 600 м
[Cu med, cong Cs]
+22.4 +16.3 68 +27 +29 душно 1018.8 1004.7
З 2 30 км 5/1 600 м
[Cu med, cong Ac lent Cs]
+22.3 +16.2 68 +26 +27 жарко 1018.6 1004.5
З 2 35 км {гроза, дождь} 4/1 600 м
[Cu med, cong Ac trans Ci fib]
+20.0 +15.6 76 +23 +23 комфорт 1018.4 1004.2 +23.4 2
ЮЗ 1 35 км 1/0
[Ac lent]
+18.1 +15.9 87 +19 +19 1018.8 1004.5
ЮЗ 1 30 км ясно +16.1 +14.7 91 +17 +17 1018.9 1004.5
Ю 1 20 км ясно +14.6 +13.6 94 +15 +15 1019.2 1004.7
С 1 20 км ясно +13.8 +13.3 97 +14 +14 1019.1 1004.5
ЮЗ 1 12 км ясно +13.6 +13.1 97 +14 +14 1019.1 1004.5
штиль 0 6000 м дымка ясно +12.9 +12.4 97 +12 +12 1019.1 1004.5
ЮВ 1 8000 м дымка ясно +12.1 +11.5 96 +12 +12 1019.2 1004.5
ЮЗ 1 1500 м дымка ясно +11.0 +10.8 99 +11 +11 1019.1 1004.4
ЮВ 1 2000 м дымка 1/0
[Ac trans]
+11.0 +10.6 97 +11 +11 1018.9 1004.2
СЗ 1 500 м туман, небо видно ясно +11.0 +10.6 97 +11 +11 1019.0 1004.3
В 1 300 м туман, небо видно ясно +12.5 +12.5 100 +12 +15 1019.2 1004.6
В 2 700 м туман, небо видно 4/3 1000 м
[Cu hum Ci fib]
+15.2 +15.0 99 +15 +19 1019.1 1004.6 +10.4 2.4
В 2 8000 м в посл. час туман 3/1 1000 м
[Cu hum Ci fib]
+17.7 +15.5 87 +18 +26 1018.8 1004.5
В 2 35 км 3/1 1000 м
[Cu hum Ci sp]
+21.2 +15.6 70 +24 +36 комфорт 1018.5 1004.3
ЮВ 3 50 км {туман} 4/1 600 м
[Cu med, cong Ci sp]
+22.4 +14.3 60 +26 +37 жарко 1018.1 1004.0
В 2 50 км 6/1 600 м
[Cu med, cong Cs]
+24.0 +14.9 57 +27 +42 жарко 1017.6 1003.6
ЮВ 4 50 км 5/3 600 м
[Cu med, cong Cs]
+25.6 +12.3 44 +27 +36 жарко 1017.0 1003.0
В 5 50 км {туман} 4/1 600 м
[Cu med, cong Cs]
+26.7 +8.4 31 +27 +34 жарко 1016.3 1002.4
В 4 50 км 4/3 600 м
[Cu med, cong Ci sp]
+27.2 +7.8 29 +27 +33 жарко 1015.7 1001.8
В 5 {11} 50 км 4/3 600 м
[Cu med, cong Ci sp]
+26.8 +10.6 36 +28 +31 жарко 1015.0 1001.1
В 4 50 км 5/3 600 м
[Cu med, cong Cs]
+26.1 +11.1 39 +27 +30 жарко 1014.4 1000.5
В 6 {12} 50 км 8/1 600 м
[Cu med, cong Cs]
+25.2 +11.7 43 +27 +28 жарко 1014.1 1000.2
В 5 {11} 50 км 5/1 600 м
[Cu med, cong Cs]
+24.6 +10.4 41 +26 +26 жарко 1014.4 1000.4
В 4 45 км 9/0
[Ac As Cs]
+23.2 +11.0 46 +25 +25 комфорт 1014.3 1000.4 +27.8
В 3 30 км 9/0
[Ac As Cs]
+21.9 +10.8 49 +24 +24 комфорт 1014.8 1000.8
В 2 30 км 9/0
[Ac As Cs]
+20.8 +9.8 49 +23 +23 комфорт 1015.0 1001.0
ЮЗ 1 30 км 8/0
[Ac As Cs]
+18.0 +10.4 61 +19 +19 1015.7 1001.5
С 1 30 км 8/0
[Ac As Cs]
+17.3 +9.7 61 +18 +18 1015.9 1001.7
ЮЗ 1 30 км 9/0
[Ac As]
+15.6 +11.1 75 +16 +16 1016.2 1001.9
штиль 0 30 км 9/0
[Ac As]
+15.3 +11.3 77 +15 +15 1016.4 1002.1
Ю 1 30 км 9/0
[Ac As]
+14.6 +11.5 82 +15 +15 1016.6 1002.2
Ю 1 30 км 4/0
[Ac lent Cs]
+13.6 +11.5 87 +14 +14 1016.4 1002.0
штиль 0 30 км 5/0
[Ac trans]
+12.8 +11.0 89 +12 +12 1016.3 1001.8
Ю 1 30 км 8/0
[Ac trans Cs]
+12.5 +11.2 92 +12 +13 1016.6 1002.1
Ю 1 50 км 9/1 1000 м
[Cu hum Ac trans Cs]
+14.0 +12.6 91 +14 +16 1016.9 1002.5
В 2 50 км 8/1 1000 м
[Cu hum Ac trans Cs]
+18.0 +12.5 70 +19 +22 1017.4 1003.1 +12.4
В 2 50 км 8/1 600 м
[Cu med, cong Cs]
+19.7 +11.6 60 +22 +29 комфорт 1017.6 1003.3
В 2 50 км 8/1 600 м
[Cu med, cong Cs]
+22.1 +11.8 52 +24 +35 комфорт 1017.6 1003.5
ЮВ 2 50 км 8/1 600 м
[Cu med, cong Cs]
+23.1 +11.3 47 +25 +38 комфорт 1017.9 1003.8
В 3 50 км 8/1 600 м
[Cu med, cong Cs]
+24.5 +10.1 40 +25 +37 комфорт 1018.0 1004.0
В 3 50 км 8/3 600 м
[Cu med, cong Cs]
+24.7 +10.2 40 +26 +35 жарко 1017.8 1003.8
В 5 50 км 8/1 1000 м
[Cu hum Cs]
+24.9 +9.4 37 +26 +32 жарко 1017.5 1003.5
В 5 50 км 8/1 1000 м
[Cu hum Cs]
+25.8 +5.6 27 +25 +31 комфорт 1017.4 1003.4
СВ 4 50 км 8/1 1000 м
[Cu hum Cs]
+25.2 +5.4 28 +25 +30 комфорт 1017.2 1003.2
В 5 50 км 9/0
[Cs]
+24.7 +4.8 28 +24 +27 комфорт 1017.3 1003.3
В 4 45 км 9/0
[Cs]
+23.5 +4.8 30 +23 +25 комфорт 1017.6 1003.5
В 3 45 км 9/0
[Cs]
+22.8 +5.3 32 +23 +24 комфорт 1017.9 1003.8
В 3 45 км 9/0
[Ac lent Cs]
+21.6 +5.0 34 +22 +22 комфорт 1018.2 1004.0 +26.6
В 1 40 км 9/0
[Ac lent Cs]
+18.8 +8.5 51 +20 +20 1018.6 1004.3
штиль 0 40 км 9/0
[Cs]
+16.9 +9.6 62 +17 +17 1019.3 1004.9
штиль 0 40 км 9/0
[Cs]
+13.2 +11.1 87 +13 +13 1019.6 1005.0
ЮЗ 1 40 км 8/0
[Cs]
+12.0 +11.1 94 +12 +12 1019.7 1005.0
ЮЗ 1 40 км 8/0
[Cs]
+10.5 +9.8 95 +10 +10 1019.9 1005.1
ЮЗ 1 40 км 8/0
[Cs]
+10.3 +9.4 94 +10 +10 1019.9 1005.1
штиль 0 20 км 8/0
[Cs]
+9.7 +8.9 95 +9 +9 1019.9 1005.1
СЗ 1 20 км 8/0
[Cs]
+10.0 +9.4 96 +9 +9 1020.1 1005.3
СЗ 1 15 км 4/0
[Cs]
+9.8 +9.3 97 +9 +9 1020.2 1005.4
З 1 20 км 1/0
[Ci fib]
+9.5 +8.9 96 +9 +9 1020.2 1005.4
штиль 0 20 км 1/0
[Ci fib]
+12.4 +11.5 94 +12 +15 1020.5 1005.8
ЮЗ 1 20 км ясно +15.4 +12.7 84 +16 +22 1020.6 1006.2 +9.4
С 1 20 км ясно +18.8 +12.5 67 +21 +32 комфорт 1020.5 1006.3
Ю 2 20 км ясно +21.2 +12.3 57 +23 +37 комфорт 1020.3 1006.2
СЗ 1 45 км 3/0
[Ci fib]
+22.5 +12.1 52 +25 +44 комфорт 1019.8 1005.8
В 1 50 км 4/1 600 м
[Cu med, cong Cs]
+25.0 +10.4 40 +26 +45 жарко 1019.3 1005.4
Ю 3 50 км 5/3 600 м
[Cu med, cong Cs]
+26.4 +10.8 38 +27 +38 жарко 1018.9 1005.1
З 3 50 км 8/4 600 м
[Cb calv Cs]
+27.5 +8.0 29 +27 +35 жарко 1017.8 1004.1
ЮЗ 2 50 км 6/4 600 м
[Cu med, cong Cs]
+27.9 +8.2 29 +28 +36 жарко 1017.3 1003.6
З 2 50 км 6/4 600 м
[Cu med, cong Cs]
+28.1 +8.0 28 +28 +33 жарко 1016.6 1002.9
С 2 50 км 8/5 600 м
[Cb calv Cs]
+25.4 +9.4 36 +26 +29 жарко 1016.6 1002.8
ЮВ 3 50 км гроза без осадков 8/5 600 м
[Cb cap Cs]
+23.2 +9.7 42 +25 +26 комфорт 1016.8 1002.9
СВ 3 10 км гроза, ливневой дождь 9/9 300 м
[Cb cap]
+19.2 +14.0 72 +21 +21 комфорт 1017.9 1003.7
С 2 60 км в посл. час гроза {дождь} 9/5 600 м
[Cb calv Ci ing]
+17.2 +14.4 84 +18 +18 1017.5 1003.2 +28.8 2
Ю 1 40 км 6/4 600 м
[Cu Sc Ac trans Ci fib]
+16.8 +14.3 85 +18 +18 1017.3 1003.0
ЮВ 1 20 км 4/0
[Cs]
+15.8 +13.5 86 +16 +16 1017.4 1003.1
З 1 20 км 3/0
[Cs]
+14.2 +13.0 92 +14 +14 1017.3 1002.9
ЮЗ 1 20 км ясно +13.3 +12.4 94 +13 +13 1017.3 1002.8
В 2 20 км ясно +12.5 +11.6 94 +11 +11 1017.0 1002.5
Местоположение метеостанции Смедеревска-Паланка (Сербия): широта 44.37 долгота 20.95 высота над уровнем моря 122 м.
В архиве по умолчанию представлена погода в Смедеревска-Паланке за последнюю неделю. Архивные данные за месяц целиком и за предыдущие месяцы, начиная с января 2011 года, Вы можете получить, выбрав интересующий диапазон дат из раскрывающегося списка и нажав кнопку "Найти!".
*Определитесь, кто Вы:
Внимание! Время в таблицах - всемирное. Для получения местного времени необходимо прибавить поправку, которая равна 1 ч.
Некоторые строки с данными для отдельных станций могут быть выделены курсивом. Это означает, что фактические данные отсутствуют по различным причинам, а приведенные значения являются расчетными модельными данными для данного пункта наблюдений.
Смотрите также архив погоды в соседних городах и на ближайших метеорологических станциях:
Партнеры нашего сайта:      
Пояснения к столбцам:
  • Ветер - указаны скорость ветра в м/с - средняя за 10 мин, порывы в срок и между сроками (в фигурных скобках) и направление, откуда дует ветер: С - северный,
  • СВ - северо-восточный, В - восточный, ЮВ - юго-восточный, Ю - южный, ЮЗ - юго-западный, З - западный, СЗ - северо-западный.
  • Видимость - горизонтальная дальность видимости в метрах или километрах. При видимости от 1 до 10 км при отсутствии осадков обычно наблюдается дымка, при ухудшении видимости до 1 км и менее - туман. В сухую погоду видимость может ухудшаться дымом, пылью или мглою.
  • Явления - указаны атмосферные явления, наблюдавшиеся в срок или в последний час перед сроком; фигурными скобками обозначены явления, наблюдавшиеся между сроками (за 1-3 часа до срока); квадратными скобками обозначены град или гололедные отложения с указанием их диаметра в мм.
  • Облачность - указаны через наклонную черту общая и нижняя облачность в баллах и высота нижней границы облаков в метрах; квадратными скобками обозначены формы облаков: Ci - перистые, Cs - перисто-слоистые, Cc - перисто-кучевые, Ac - высококучевые, As - высокослоистые, Sc - слоисто-кучевые, Ns - слоисто-дождевые, Cu - кучевые, Cb - кучево-дождевые. Подробнее классификацию облаков см. в Атласе облаков (PDF).
  • T - Температура воздуха - температура, измеренная на высоте 2 м над землей.
  • Td - Температура точки росы - температура, при понижении до которой содержащийся в воздухе водяной пар достигнет насыщения.
  • f - Относительная влажность воздуха - влажноcть воздуха, измеренная на высоте 2 м над землей.
  • Te - Эффективная температура - температура, которую ощущает одетый по сезону человек в тени. Характеристика душности погоды. При расчете учитывается влияние влажности воздуха и скорости ветра на теплоощущения человека.
  • Tes - Эффективная температура на солнце - температура, которую ощущает человек, с поправкой на солнечный нагрев. Характеристика знойности погоды. Зависит от высоты солнца над горизонтом, облачности и скорости ветра. Ночью, в пасмурную погоду, а также при ветре 12 м/с и более поправка равна нулю.
  • P - Атмосферное давление - приведенное к уровню моря атмосферное давление.
  • Po - Атмосферное давление - измеренное на уровне метеостанции атмосферное давление.
  • Tmin - Минимальная температура - минимум температуры воздуха на высоте 2 м над землей.
  • Tmax - Максимальная температура - максимум температуры воздуха на высоте 2 м над землей.
  • R - Количество осадков - Количество выпавших осадков за период времени, мм. При наведении курсора мыши на число - период времени, за который выпало указанное количество осадков.
  • R24 - Количество осадков - Количество выпавших осадков за 24 часа, мм.
  • S - Снежный покров - Высота снежного покрова, см. При наведении курсора мыши на число - состояние снежного покрова и степень покрытия местности в баллах.